Flag for U.S.A. Weather past 2 weeks in Norfolk, Virginia, U.S.A.

Now
72 °F

Passing clouds.


Feels Like: 75 °F
Forecast: 71 / 84 °F
Wind: 6 mph from Southeast

Location: Norfolk Naval Air Station

Current Time: Aug 29, 2014 at 10:46:19 PM

Latest Report: Aug 29, 2014 at 9:59 PM


Visibility: 10 mi

Pressure: 30.21 "Hg

Humidity: 68%

Dew point: 61 °F

Location of NorfolkLocation

Historic Weather in Norfolk — Graph

°F

Norfolk temperature yesterday

Maximum temperature yesterday: 85 °F (at 12:59 PM)
Minimum temperature yesterday: 72 °F (at 1:59 AM)
Average temperature yesterday: 79 °F

Past Weeks' High & Low Weather Summary

 TemperatureHumidityPressure
High89 °F (Aug 21, 1:59 PM)94% (Aug 19, 4:59 AM)30.21 "Hg (Aug 19, 4:59 AM)
Low70 °F (Aug 16, 2:59 AM)38% (Aug 15, 2:59 PM)29.77 "Hg (Aug 19, 4:59 AM)
Average78 °F71%30.00 "Hg
* Reported Aug 14 9:59 PM — Aug 29 9:59 PM, Norfolk, Weather by CustomWeather, © 2014

Note: Actual official high and low records may vary slightly from our data, if they occured in-between our weather recording intervals... More about our weather records

Advertising

Norfolk weather history for previous 24 hours

 ConditionsComfort  
Time TempWeatherWind HumidityBarometerVisibility
9:59 PM
Aug 29
72 °FPassing clouds.6 mph68%30.21 "Hg10 mi
8:59 PM74 °FPassing clouds.8 mph62%30.19 "Hg10 mi
7:59 PM75 °FPartly sunny.10 mph58%30.17 "Hg10 mi
6:59 PM77 °FPartly sunny.10 mph58%30.17 "Hg10 mi
5:59 PM77 °FScattered clouds.10 mph58%30.16 "Hg10 mi
4:59 PM78 °FScattered clouds.10 mph58%30.16 "Hg10 mi
2:59 PM79 °FScattered clouds.7 mph58%30.17 "Hg10 mi
1:59 PM80 °FScattered clouds.13 mph58%30.18 "Hg10 mi
12:59 PM80 °FScattered clouds.13 mph60%30.18 "Hg10 mi
11:59 AM80 °FScattered clouds.12 mph58%30.18 "Hg10 mi
10:59 AM80 °FScattered clouds.13 mph56%30.17 "Hg10 mi
9:59 AM78 °FScattered clouds.13 mph60%30.16 "Hg10 mi
8:59 AM76 °FPartly sunny.14 mph69%30.15 "Hg10 mi
7:59 AM76 °FMostly cloudy.9 mph67%30.14 "Hg10 mi
6:59 AM76 °FOvercast.10 mph69%30.12 "Hg10 mi
5:59 AM76 °FMostly cloudy.8 mph69%30.10 "Hg10 mi
4:59 AM76 °FLight rain. Overcast.10 mph74%30.09 "Hg10 mi
3:59 AM77 °FDrizzle. Overcast.10 mph79%30.08 "Hg10 mi
2:59 AM78 °FOvercast.7 mph69%30.07 "Hg10 mi
1:59 AM78 °FPassing clouds.9 mph74%30.07 "Hg10 mi
12:59 AM78 °FPartly cloudy.8 mph71%30.06 "Hg10 mi
11:59 PM
Aug 28
78 °FPassing clouds.5 mph74%30.05 "Hg10 mi
10:59 PM78 °FPassing clouds.5 mph74%30.04 "Hg10 mi
Weather by CustomWeather, © 2014

See weather overviewHow to use our weather pages